Weather History for Cut Bank, MT

Change the Weather History Date:

Tuesday, December 6, 2011

  Actual Average Record
Temperature  
Mean Temperature 30 °F 23 °F  
Max Temperature 42 °F 33 °F 57 °F (1939)
Min Temperature 18 °F 14 °F -32 °F (1956)
Degree Days  
Heating Degree Days 35 42  
Month to date heating degree days 254 246  
Since 1 July heating degree days 2227 2509  
Cooling Degree Days 0 0  
Month to date cooling degree days 0 0  
Year to date cooling degree days 151 162  
Moisture  
Dew Point 20 °F    
Average Humidity 71    
Maximum Humidity 91    
Minimum Humidity 50    
Precipitation  
Precipitation 0.00 in 0.00 in 0.15 in (1923)
Month to date precipitation 0.01 0.04  
Year to date precipitation 5.95 10.72  
Snow  
Snow 0.00 in - - ()
Snow Depth 0.00 in    
Sea Level Pressure  
Sea Level Pressure 30.03 in    
Wind  
Wind Speed 23 mph (West)    
Max Wind Speed 40 mph    
Max Gust Speed 51 mph    
Visibility 10 miles    
Events      
T = Trace of Precipitation, MM = Missing Value Source: NWS Daily Summary

Daily Weather History Graph

Daily Weather History Graph

Search for Another Location

Airport:

Trip Planner

Search our weather history database for the weather conditions in past years. The results will help you decide how hot, cold, wet, or windy it might be!

Date:

Astronomy

Dec. 06, 2011 Rise Set
Actual Time 8:06 AM MST 4:34 PM MST
Civil Twilight 7:29 AM MST 5:10 PM MST
Nautical Twilight 6:50 AM MST 5:50 PM MST
Astronomical Twilight 6:12 AM MST 6:28 PM MST
Moon 2:13 PM MST (12/6) 4:17 AM MST (12/6)
Length of Visible Light 9h 40m
Length of Day
8h 27m
Waxing Gibbous, 87% of the Moon is Illuminated
Dec 6
Waxing Gibbous
Dec 10
Full
Dec 17
Last Quarter
Dec 24
New
Dec 31
First Quarter

Hourly Weather History & Observations

Time (MST) Temp. Windchill Dew Point Humidity Pressure Visibility Wind Dir Wind Speed Gust Speed Precip Events Conditions
12:56 AM 30.0 °F 16.3 °F 17.1 °F 59% 30.02 in 10.0 mi WSW 24.2 mph 31.1 mph N/A   Clear
1:56 AM 28.9 °F 15.4 °F 17.1 °F 61% 30.02 in 10.0 mi WSW 21.9 mph 32.2 mph N/A   Clear
2:56 AM 30.9 °F 17.8 °F 17.1 °F 57% 30.00 in 10.0 mi WSW 23.0 mph - N/A   Clear
3:56 AM 30.9 °F 16.7 °F 18.0 °F 59% 29.98 in 10.0 mi West 27.6 mph 35.7 mph N/A   Clear
4:56 AM 32.0 °F 18.1 °F 18.0 °F 56% 29.95 in 10.0 mi WSW 27.6 mph 36.8 mph N/A   Clear
5:56 AM 32.0 °F 19.2 °F 19.0 °F 59% 29.95 in 10.0 mi WSW 23.0 mph 32.2 mph N/A   Clear
6:56 AM 33.1 °F 18.7 °F 18.0 °F 54% 29.93 in 10.0 mi West 32.2 mph 40.3 mph N/A   Clear
7:56 AM 32.0 °F 17.9 °F 18.0 °F 56% 29.92 in 10.0 mi WSW 28.8 mph 42.6 mph N/A   Clear
8:56 AM 34.0 °F 21.0 °F 18.0 °F 52% 29.94 in 10.0 mi West 26.5 mph 32.2 mph N/A   Clear
9:56 AM 36.0 °F 22.0 °F 19.0 °F 50% 29.96 in 10.0 mi West 35.7 mph 44.9 mph N/A   Clear
10:56 AM 37.9 °F 25.9 °F 21.0 °F 51% 29.99 in 10.0 mi West 28.8 mph 40.3 mph N/A   Clear
11:56 AM 39.2 °F 27.2 °F 23.0 °F 52% 29.90 in 10.0 mi West 31.1 mph 41.4 mph N/A   Clear
12:56 PM 41.0 °F 29.8 °F 25.0 °F 53% 29.94 in 10.0 mi West 29.9 mph 42.6 mph N/A   Clear
1:56 PM 39.9 °F 27.3 °F 25.0 °F 55% 29.97 in 10.0 mi West 36.8 mph 44.9 mph N/A   Clear
2:56 PM 39.0 °F 26.8 °F 24.1 °F 55% 29.99 in 10.0 mi West 32.2 mph 41.4 mph N/A   Clear
3:56 PM 37.0 °F 25.9 °F 23.0 °F 57% 30.02 in 10.0 mi West 23.0 mph 39.1 mph N/A   Clear
4:56 PM 34.0 °F 22.1 °F 21.9 °F 61% 30.06 in 10.0 mi West 21.9 mph 33.4 mph N/A   Clear
5:56 PM 32.0 °F 20.8 °F 21.0 °F 64% 30.12 in 10.0 mi NW 17.3 mph - N/A   Clear
6:56 PM 30.9 °F 20.7 °F 21.9 °F 69% 30.14 in 10.0 mi WNW 13.8 mph - N/A   Clear
7:56 PM 28.0 °F 20.0 °F 21.9 °F 78% 30.18 in 10.0 mi NNW 8.1 mph - N/A   Clear
8:56 PM 23.0 °F 13.9 °F 19.9 °F 88% 30.20 in 10.0 mi WNW 8.1 mph - N/A   Clear
9:56 PM 19.9 °F 11.1 °F 18.0 °F 92% 30.22 in 10.0 mi NW 6.9 mph - N/A   Clear
10:56 PM 19.9 °F 9.3 °F 17.1 °F 89% 30.21 in 10.0 mi North 9.2 mph - N/A   Clear
11:56 PM 18.0 °F 7.7 °F 16.0 °F 92% 30.21 in 10.0 mi North 8.1 mph - N/A   Clear